User: anonymous   Login
Location: Unspecified
(0.0000°N, 0.0000°E)
Time: 05:27:55
(UTC+00:00)
Language:

PROBA 2 - Orbit

View from above orbital plane
View from above orbital plane
View from above satellite
View from above satellite

Ground track
Ground track

The orbit data is extracted from the following two-line orbital elements,

1 36037U 09059B   18174.59252572 +.00000022 +00000-0 +16078-4 0  9990
2 36037 098.2421 006.9592 0012075 273.2122 086.7692 14.53041728457977
Epoch (UTC): 23 June 2018 14:13:14
Eccentricity: 0.0012075
inclination: 98.2421°
perigee height: 707 km
apogee height: 724 km
right ascension of ascending node: 6.9592°
argument of perigee: 273.2122°
revolutions per day: 14.53041728
mean anomaly at epoch: 86.7692°
orbit number at epoch: 45797

The dashed part of the orbit path shows where the satellite is in the earth's shadow,  

DLR